TimeCST,TemperatureF,Dew PointF,Humidity,Sea Level PressureIn,VisibilityMPH,Wind Direction,Wind SpeedMPH,Gust SpeedMPH,PrecipitationIn,Events,Conditions,WindDirDegrees,DateUTC
12:15 AM,19.6,-0.4,42,30.17,10.0,Calm,Calm,-,N/A,,Clear,0,2013-02-17 06:15:00
12:35 AM,20.3,-0.4,40,30.17,10.0,Calm,Calm,-,N/A,,Clear,0,2013-02-17 06:35:00
12:55 AM,19.8,-0.2,42,30.17,10.0,Calm,Calm,-,N/A,,Clear,0,2013-02-17 06:55:00
1:15 AM,18.3,0.1,45,30.17,10.0,Calm,Calm,-,N/A,,Clear,0,2013-02-17 07:15:00
1:35 AM,18.9,0.9,46,30.17,10.0,Calm,Calm,-,N/A,,Clear,0,2013-02-17 07:35:00
1:55 AM,18.7,1.2,47,30.18,10.0,Calm,Calm,-,N/A,,Clear,0,2013-02-17 07:55:00
2:15 AM,17.6,1.4,49,30.18,10.0,Calm,Calm,-,N/A,,Clear,0,2013-02-17 08:15:00
2:35 AM,17.4,2.5,52,30.17,10.0,Calm,Calm,-,N/A,,Clear,0,2013-02-17 08:35:00
2:55 AM,17.1,2.5,53,30.18,10.0,Calm,Calm,-,N/A,,Clear,0,2013-02-17 08:55:00
3:15 AM,16.9,2.8,54,30.18,10.0,Calm,Calm,-,N/A,,Clear,0,2013-02-17 09:15:00
3:35 AM,17.6,3.4,54,30.18,10.0,Calm,Calm,-,N/A,,Clear,0,2013-02-17 09:35:00
3:55 AM,17.2,2.7,53,30.18,10.0,Calm,Calm,-,N/A,,Clear,0,2013-02-17 09:55:00
4:15 AM,17.2,2.7,53,30.18,10.0,Calm,Calm,-,N/A,,Clear,0,2013-02-17 10:15:00
4:35 AM,16.5,2.5,54,30.18,10.0,Calm,Calm,-,N/A,,Clear,0,2013-02-17 10:35:00
4:55 AM,15.6,2.5,56,30.19,10.0,Calm,Calm,-,N/A,,Clear,0,2013-02-17 10:55:00
5:15 AM,15.6,2.8,57,30.20,10.0,Calm,Calm,-,N/A,,Clear,0,2013-02-17 11:15:00
5:35 AM,16.0,3.2,57,30.20,10.0,Calm,Calm,-,N/A,,Clear,0,2013-02-17 11:35:00
5:55 AM,15.4,2.8,58,30.21,10.0,Calm,Calm,-,N/A,,Clear,0,2013-02-17 11:55:00
6:15 AM,16.5,3.9,58,30.21,10.0,Calm,Calm,-,N/A,,Clear,0,2013-02-17 12:15:00
6:35 AM,16.7,2.7,54,30.21,10.0,Calm,Calm,-,N/A,,Clear,0,2013-02-17 12:35:00
6:55 AM,15.4,1.6,54,30.23,10.0,Calm,Calm,-,N/A,,Clear,0,2013-02-17 12:55:00
7:15 AM,16.7,3.7,57,30.23,10.0,Calm,Calm,-,N/A,,Clear,0,2013-02-17 13:15:00
7:55 AM,22.1,5.0,48,30.25,10.0,Calm,Calm,-,N/A,,Clear,0,2013-02-17 13:55:00
8:15 AM,24.3,2.7,39,30.26,10.0,Calm,Calm,-,N/A,,Clear,0,2013-02-17 14:15:00
8:35 AM,26.2,2.8,37,30.26,10.0,SW,3.5,-,N/A,,Clear,230,2013-02-17 14:35:00
8:55 AM,28.0,1.9,33,30.27,10.0,WSW,4.6,-,N/A,,Clear,240,2013-02-17 14:55:00
9:15 AM,29.7,0.3,28,30.27,10.0,Calm,Calm,-,N/A,,Clear,0,2013-02-17 15:15:00
9:35 AM,30.9,-3.6,23,30.27,10.0,West,6.9,-,N/A,,Clear,260,2013-02-17 15:35:00
9:55 AM,32.0,-7.1,18,30.27,10.0,West,4.6,-,N/A,,Clear,260,2013-02-17 15:55:00
10:15 AM,33.3,-10.3,15,30.27,10.0,SW,6.9,-,N/A,,Clear,220,2013-02-17 16:15:00
10:35 AM,34.5,-12.8,13,30.27,10.0,West,6.9,-,N/A,,Clear,280,2013-02-17 16:35:00
10:55 AM,36.0,-19.5,9,30.27,10.0,West,3.5,-,N/A,,Clear,260,2013-02-17 16:55:00
11:15 AM,36.1,-28.5,5,30.26,10.0,West,6.9,-,N/A,,Clear,270,2013-02-17 17:15:00
11:35 AM,37.2,-27.0,6,30.26,10.0,WSW,5.8,-,N/A,,Clear,250,2013-02-17 17:35:00
11:55 AM,37.9,-29.6,5,30.25,10.0,Calm,Calm,-,N/A,,Clear,0,2013-02-17 17:55:00
12:15 PM,-9999,-9999,N/A,30.24,10.0,SSW,3.5,-,N/A,,Clear,200,2013-02-17 18:15:00
12:55 PM,-9999,-9999,N/A,30.22,10.0,West,10.4,-,N/A,,Clear,280,2013-02-17 18:55:00
1:15 PM,-9999,-9999,N/A,30.22,10.0,West,8.1,-,N/A,,Clear,270,2013-02-17 19:15:00
1:35 PM,-9999,-9999,N/A,30.21,10.0,WSW,10.4,-,N/A,,Clear,250,2013-02-17 19:35:00
1:55 PM,-9999,-9999,N/A,30.21,10.0,West,5.8,-,N/A,,Clear,280,2013-02-17 19:55:00
2:15 PM,-9999,-9999,N/A,30.21,10.0,WSW,9.2,-,N/A,,Clear,250,2013-02-17 20:15:00
2:35 PM,-9999,-9999,N/A,30.21,10.0,West,4.6,-,N/A,,Clear,280,2013-02-17 20:35:00
2:55 PM,-9999,-9999,N/A,30.21,10.0,WNW,8.1,-,N/A,,Scattered Clouds,300,2013-02-17 20:55:00
3:15 PM,-9999,-9999,N/A,30.20,10.0,WSW,8.1,-,N/A,,Scattered Clouds,240,2013-02-17 21:15:00
3:35 PM,-9999,-9999,N/A,30.19,10.0,Calm,Calm,-,N/A,,Clear,0,2013-02-17 21:35:00
3:55 PM,-9999,-9999,N/A,30.19,10.0,Calm,Calm,-,N/A,,Clear,0,2013-02-17 21:55:00
4:15 PM,-9999,-9999,N/A,30.19,10.0,West,3.5,-,N/A,,Clear,260,2013-02-17 22:15:00
4:35 PM,-9999,-9999,N/A,30.19,10.0,SW,4.6,-,N/A,,Clear,220,2013-02-17 22:35:00
4:55 PM,-9999,-9999,N/A,30.20,10.0,SW,3.5,-,N/A,,Clear,220,2013-02-17 22:55:00
5:15 PM,-9999,-9999,N/A,30.19,10.0,Calm,Calm,-,N/A,,Clear,0,2013-02-17 23:15:00
5:35 PM,35.8,-13.7,12,30.18,10.0,Calm,Calm,-,N/A,,Clear,0,2013-02-17 23:35:00
5:55 PM,36.0,-17.0,10,30.19,10.0,Calm,Calm,-,N/A,,Clear,0,2013-02-17 23:55:00
6:15 PM,34.7,-11.9,13,30.18,10.0,Calm,Calm,-,N/A,,Mostly Cloudy,0,2013-02-18 00:15:00
6:35 PM,32.9,-6.5,18,30.18,10.0,East,3.5,-,N/A,,Scattered Clouds,90,2013-02-18 00:35:00
6:55 PM,32.0,-3.3,22,30.18,10.0,East,3.5,-,N/A,,Clear,100,2013-02-18 00:55:00
7:15 PM,31.3,-1.5,25,30.18,10.0,East,4.6,-,N/A,,Mostly Cloudy,100,2013-02-18 01:15:00
7:35 PM,30.7,0.1,27,30.18,10.0,ESE,3.5,-,N/A,,Scattered Clouds,110,2013-02-18 01:35:00
7:55 PM,30.2,1.6,30,30.18,10.0,East,3.5,-,N/A,,Clear,100,2013-02-18 01:55:00
8:15 PM,31.1,-1.5,25,30.18,10.0,ESE,3.5,-,N/A,,Clear,110,2013-02-18 02:15:00
8:35 PM,31.3,-2.2,24,30.18,10.0,ESE,3.5,-,N/A,,Clear,110,2013-02-18 02:35:00
8:55 PM,31.8,-3.1,22,30.19,10.0,SE,3.5,-,N/A,,Clear,140,2013-02-18 02:55:00
9:15 PM,32.0,-5.1,20,30.18,10.0,Calm,Calm,-,N/A,,Clear,0,2013-02-18 03:15:00
9:35 PM,32.9,-8.1,17,30.18,10.0,Calm,Calm,-,N/A,,Clear,0,2013-02-18 03:35:00
9:55 PM,33.3,-9.8,15,30.18,10.0,SE,3.5,-,N/A,,Clear,140,2013-02-18 03:55:00
10:15 PM,33.6,-10.1,15,30.19,10.0,SSE,3.5,-,N/A,,Clear,160,2013-02-18 04:15:00
10:35 PM,33.4,-9.8,15,30.18,10.0,SSE,3.5,-,N/A,,Clear,150,2013-02-18 04:35:00
10:55 PM,33.4,-10.3,15,30.18,10.0,SE,5.8,-,N/A,,Clear,140,2013-02-18 04:55:00
11:15 PM,33.4,-10.1,15,30.18,10.0,SE,4.6,-,N/A,,Clear,140,2013-02-18 05:15:00
11:35 PM,33.3,-9.9,15,30.18,10.0,SE,4.6,-,N/A,,Clear,140,2013-02-18 05:35:00
11:55 PM,33.4,-9.2,16,30.18,10.0,SSE,3.5,-,N/A,,Clear,150,2013-02-18 05:55:00